Regional Weather Roundup
Issued by NWS Midland/Odessa, TX

Skip options and go directly to product.
Home | Oldest Version | Previous Version | Current Version | All | Text Only | Save Text | Print | Product List | Glossary Off

Skip product version selection by date and time.   

978
ASUS44 KMAF 012210
RWRMAF
MIDLAND AREA WEATHER ROUNDUP
NATIONAL WEATHER SERVICE MIDLAND TX
500 PM CDT SAT AUG 01 2015

...IN SOUTHWEST TEXAS AND SOUTHEAST NEW MEXICO...

CITY           SKY/WX    TMP DP  RH WIND       PRES   REMARKS
ALPINE         PTSUNNY   73  65  74 SW9       30.19F
ANDREWS        FAIR      88  63  43 E16G25    30.03F
ARTESIA        MOSUNNY   90  57  33 SW28G38   30.04S
BIG SPRING     MOSUNNY   82  62  50 SE9       30.05F
CARLSBAD       MOSUNNY   97  56  25 SW9       29.99F
DRYDEN           N/A    100  60  26 E8G17     29.95F HX 100
FORT STOCKTON  SUNNY     95  56  26 SE14G20   29.99F
GUAD PASS      HVY RAIN  73  51  46 N8G21     30.22S
HOBBS          MOSUNNY   93  54  26 SE14      30.04F
MARFA          CLOUDY    77  63  61 NE14      30.17F
MIDLAND AIRPK  MOSUNNY   97  60  28 E23G30    30.01F
MIDLAND INTL   MOSUNNY   97  58  27 E8        29.99F
ODESSA         MOSUNNY   98  55  23 SE15G21   30.00F
PECOS          SUNNY    101  54  20 E13G20    29.95F
PRESIDIO       FAIR      99  53  21 N5G17     29.95F
SEMINOLE       MOSUNNY   96  55  24 S10G20    30.04F
SNYDER         SUNNY     90  69  49 E13G20    30.03F
WINK           SUNNY    101  54  20 SE14      29.95F
$$
...OTHER STATIONS IN TEXAS...

CITY           SKY/WX    TMP DP  RH WIND       PRES   REMARKS
ABILENE        MOSUNNY   93  66  40 E12G20    30.01F
AMARILLO       MOSUNNY   83  68  60 S14       30.08F
AUSTIN         MOSUNNY   96  58  27 E12       29.92F
BROWNSVILLE    PTSUNNY   87  73  62 E10       29.89F
CORPUS CHRISTI MOSUNNY   95  71  45 E12G18    29.88F HX 102
DALLAS FTW     PTSUNNY   96  54  24 VRB6      29.96F
DEL RIO        PTSUNNY   82  70  66 SE10      29.91F
EL PASO        MOSUNNY   95  48  20 NE6       30.03F
HOUSTON INT    PTSUNNY   97  63  32 N8        29.90F
LUBBOCK        MOSUNNY   89  67  47 SE17G24   30.05F
SAN ANGELO     MOSUNNY   98  63  31 E9G20     29.97F HX 100
SAN ANTONIO    MOSUNNY   98  58  26 E8        29.93F
WACO           SUNNY     98  56  24 VRB6      29.95F
WICHITA FALLS  NOT AVBL
$$
...OTHER LOCATIONS IN NEW MEXICO...

CITY           SKY/WX    TMP DP  RH WIND       PRES   REMARKS
ALAMAGORDO     MOSUNNY   91  46  21 SE6       30.07F
ALBUQUERQUE    MOSUNNY   87  48  25 CALM      30.15F
CANNON AFB     MOSUNNY   87  62  42 S9        30.08F
CLOVIS         MOSUNNY   90  63  40 SW12      30.09F
HOLLOMAN AFB   MOSUNNY   94  49  21 SW14      30.04F
ROSWELL        MOSUNNY   97  54  23 E7        30.02F
RUIDOSO          N/A    N/A N/A N/A MISG        N/A
SANTA FE       PTSUNNY   75  55  49 N12       30.24F
TRUTH OR CONSE MOSUNNY   90  51  26 MISG      30.10F
TUCUMCARI      SUNNY     90  63  40 S12G18    30.04F
$$

USA.gov is the U.S. government's official web portal to all federal, state and local government web resources and services.